Terminal Aerodrome Forecast
Issued by NWS

Home | Current Version | Previous Version | Text Only | Print | Product List | Glossary On
Versions: 1 2 3 4 5 6 7 8 9 10 11 12
000
FTUS42 KMLB 301100
TAFSFB
TAF
KSFB 301140Z 3012/3112 26004KT P6SM SCT250
     FM301400 29009KT P6SM SCT040 BKN120
      TEMPO 3017/3019 BKN035
     FM301900 33013G20KT P6SM FEW040 BKN250
     FM310100 34008KT P6SM SCT250=

USA.gov is the U.S. government's official web portal to all federal, state and local government web resources and services.